[[{"header":{"parameterUnit":"m.s-1","parameterCategory":1,"la1":30.2991,"la2":30.254,"lo1":-89.0895,"lo2":-89.0444,"dy":0.0017,"dx":0.0017,"nx":28,"ny":28,"refTime":"2024-04-20T03:00:00:Z","depth":0,"parameterNumber":2,"parameterNumberName":"U-component_of_WINDS"},"data":[0,0,0,0,0,0,0,0,0,0,0,0,0,0,0,0,0,0,0,0,0,0,0,0,0,0,0,0,0,0,0,0,0,0,0,0,0,0,0,0,0,0,0,0,0,0,0,0,0,0,0,0,0,0,0,0,0,0,1.0864,1.0864,0,1.0945,1.0946,1.0947,1.0943,1.0941,1.094,1.0939,1.1026,1.1029,1.1033,0,0,0,0,0,0,0,0,0,0,0,0,0,1.0707,1.071,1.0864,1.0865,1.0866,1.0945,1.0946,1.0947,1.0943,1.0941,1.094,1.0939,1.1025,1.1029,1.1033,0,0,0,0,0,0,0,0,0,0,0,0,0,1.0781,1.0711,1.0863,1.0873,1.0875,1.0945,1.0946,1.0947,1.0943,1.0941,1.094,1.0938,1.1023,1.1028,1.1033,1.11,0,0,1.1049,1.1051,0,0,0,0,0,0,0,0,1.0777,1.0787,1.0871,1.0872,1.0874,1.0932,1.0923,1.0999,1.0944,1.0917,1.0939,1.0937,1.0996,1.1003,1.1023,1.1104,1.1108,1.1049,1.1053,1.1055,1.1056,0,0,0,0,0,0,0,1.0772,1.0783,1.0896,1.0872,1.0874,1.0874,1.0883,1.0937,1.0966,1.0919,1.0919,1.0929,1.0997,1.1018,1.1025,1.1109,1.1049,1.1054,1.1057,1.1059,1.125,1.1252,0,0,0,0,0,0,1.0764,1.0779,1.0893,1.0898,1.082,1.0878,1.0888,1.0915,1.0965,1.0971,1.093,1.0928,1.101,1.1019,1.1028,1.1109,1.1055,1.1059,1.1062,1.1248,1.1251,1.1253,0,0,0,0,0,0,1.0761,1.0774,1.089,1.0839,1.0853,1.0883,1.0914,1.0918,1.0938,1.0973,1.0979,1.0946,1.1009,1.1021,1.1082,1.1112,1.1062,1.1066,1.1246,1.1249,1.1252,1.1273,0,0,0,0,0,0,1.0756,1.0773,1.0798,1.0839,1.0856,1.0942,1.0916,1.0921,1.0947,1.0945,1.0989,1.0995,1.1008,1.1074,1.1087,1.1118,1.107,1.1243,1.1247,1.1251,1.127,1.1277,1.1282,0,0,0,0,0,1.0751,1.0801,1.0799,1.0813,1.0888,1.0944,1.0954,1.0967,1.0949,1.0975,1.0998,1.0994,1.1107,1.1081,1.1095,1.1128,1.1241,1.1246,1.1251,1.1267,1.1275,1.1282,0,0,0,0,0,0,1.0764,1.0807,1.0805,1.087,1.0903,1.0943,1.0976,1.0975,1.1014,1.1011,1.1027,1.1037,1.1099,1.112,1.109,1.1196,1.1172,1.118,1.118,1.1188,1.1194,1.1188,1.1075,0,0,0,0,0,1.0774,1.0816,1.0851,1.0906,1.0922,1.0946,1.0971,1.0978,1.1014,1.1028,1.1055,1.109,1.1133,1.1162,1.1204,1.1273,1.1283,1.1303,1.1309,1.1314,1.1321,1.1359,1.1369,1.1268,1.1268,1.1268,0,0,1.0797,1.0825,1.085,1.0909,1.0935,1.0978,1.0958,1.1004,1.1037,1.1035,1.1095,1.1116,1.1156,1.1222,1.1252,1.1241,1.135,1.132,1.1323,1.1327,1.1365,1.1374,1.1383,1.1271,1.127,1.127,0,0,1.086,1.0885,1.0933,1.096,1.0999,1.1015,1.1027,1.1067,1.108,1.114,1.1139,1.1179,1.1253,1.1282,1.1307,1.138,1.1378,1.1393,1.1426,1.1463,1.1471,1.1478,1.1505,1.1514,1.14,1.14,1.14,0,1.0883,1.0946,1.0958,1.1005,1.1031,1.103,1.108,1.1105,1.1157,1.1176,1.1163,1.1256,1.1283,1.1356,1.1374,1.1393,1.1408,1.1389,1.1469,1.1476,1.1483,1.1509,1.1519,1.1401,1.1401,1.1401,1.1401,0,1.0973,1.1017,1.1052,1.1101,1.1131,1.1178,1.1198,1.1227,1.1232,1.1249,1.1311,1.1343,1.1392,1.1409,1.1415,1.1483,1.1475,1.1465,1.1442,1.1494,1.1518,1.1528,1.1404,1.1403,1.1403,1.1402,0,0,1.1047,1.1101,1.1114,1.1136,1.118,1.1215,1.1263,1.131,1.1334,1.137,1.1412,1.1475,1.1466,1.1493,1.1502,1.1535,1.1592,1.1521,1.1522,1.1533,1.1669,1.1676,1.1687,1.159,1.1592,1.1594,1.1666,0,1.1114,1.1198,1.121,1.1285,1.1327,1.1327,1.1369,1.1401,1.1418,1.1457,1.1477,1.1521,1.1506,1.1523,1.1555,1.1578,1.1619,1.1573,1.163,1.1632,1.162,1.17,1.1708,1.1774,1.1675,1.1677,1.1678,0,1.1204,1.1241,1.132,1.1358,1.1376,1.1413,1.1457,1.1494,1.153,1.1541,1.1571,1.1576,1.1627,1.1601,1.1672,1.164,1.1664,1.1679,1.1682,1.1688,1.1658,1.1709,1.1796,1.1806,1.1693,1.1692,1.1691,0,1.125,1.132,1.1376,1.1395,1.1441,1.1468,1.1488,1.1523,1.155,1.1589,1.1607,1.1651,1.1675,1.171,1.1727,1.1706,1.1797,1.1772,1.1808,1.1807,1.1827,1.1826,1.1919,1.1842,1.1842,1.1842,1.1842,0,1.1324,1.1373,1.1398,1.1432,1.1486,1.15,1.1554,1.1574,1.1605,1.1644,1.1647,1.1684,1.1704,1.1744,1.1758,1.1814,1.1825,1.1836,1.1839,1.1836,1.1835,1.1852,1.1848,1.1845,1.1844,1.1843,1.1843,0,1.1385,1.1404,1.1465,1.1503,1.1514,1.1552,1.1586,1.162,1.1637,1.1686,1.1699,1.1726,1.1774,1.1794,1.1852,1.1861,1.1927,1.1926,1.1914,1.1915,1.195,1.1946,1.2058,1.2074,1.1986,1.1987,1.1987,0,1.1432,1.1469,1.151,1.1536,1.1557,1.1599,1.1627,1.1642,1.1671,1.1715,1.1744,1.1791,1.1829,1.1905,1.1931,1.1976,1.1977,1.2013,1.1984,1.198,1.1978,1.1976,1.198,1.2019,1.202,1.202,1.2021,0,1.1512,1.1519,1.1558,1.16,1.1633,1.1667,1.1701,1.1722,1.1743,1.1775,1.1823,1.1852,1.1912,1.1959,1.2005,1.2028,1.2028,1.203,1.2041,1.2038,1.2029,1.2034,1.1929,1.2027,1.2027,1.2026,1.2026,1.2026,1.1567,1.16,1.1634,1.1678,1.1704,1.1736,1.1769,1.179,1.183,1.1879,1.1886,1.1937,1.1973,1.2036,1.206,1.2101,1.2092,1.2107,1.2111,1.2115,1.2117,1.2022,1.2109,1.2109,1.2109,1.2109,1.2109,0,1.1648,1.167,1.1709,1.1756,1.179,1.1786,1.1823,1.1853,1.1897,1.193,1.1968,1.2023,1.2069,1.2098,1.2144,1.2172,1.2173,1.2183,1.2182,1.2187,1.2122,1.2108,1.2181,1.2181,1.2181,1.2181,1.2181,1.2181,1.1694,1.1749,1.176,1.1829,1.1851,1.1901,1.1922,1.1951,1.1978,1.2039,1.2076,1.2095,1.2127,1.2175,1.2217,1.2225,1.2242,1.2252,1.2259,1.2199,1.2191,1.2184,1.2171,1.2256,1.2256,1.2321,1.2321,1.2322]},{"header":{"parameterUnit":"m.s-1","parameterCategory":1,"la1":30.2991,"la2":30.254,"lo1":-89.0895,"lo2":-89.0444,"dy":0.0017,"dx":0.0017,"nx":28,"ny":28,"refTime":"2024-04-20T03:00:00:Z","depth":0,"parameterNumber":3,"parameterNumberName":"V-component_of_WINDS"},"data":[0,0,0,0,0,0,0,0,0,0,0,0,0,0,0,0,0,0,0,0,0,0,0,0,0,0,0,0,0,0,0,0,0,0,0,0,0,0,0,0,0,0,0,0,0,0,0,0,0,0,0,0,0,0,0,0,0,0,1.4626,1.4627,0,1.4633,1.4633,1.4633,1.4585,1.4583,1.4582,1.4581,1.4586,1.4588,1.4589,0,0,0,0,0,0,0,0,0,0,0,0,0,1.4572,1.4574,1.4626,1.4627,1.4627,1.4633,1.4633,1.4633,1.4585,1.4583,1.4582,1.458,1.4586,1.4587,1.4589,0,0,0,0,0,0,0,0,0,0,0,0,0,1.4589,1.4574,1.4626,1.4604,1.4602,1.4633,1.4633,1.4633,1.4585,1.4583,1.4581,1.4579,1.4585,1.4587,1.4589,1.4642,0,0,1.4596,1.4597,0,0,0,0,0,0,0,0,1.4588,1.4591,1.4607,1.4605,1.4603,1.4606,1.4616,1.4636,1.4586,1.4591,1.4581,1.4578,1.4594,1.4596,1.4601,1.4643,1.4643,1.4596,1.4597,1.4598,1.4599,0,0,0,0,0,0,0,1.4587,1.459,1.4629,1.4607,1.4605,1.4593,1.4593,1.4619,1.4604,1.4591,1.4587,1.4589,1.4593,1.4599,1.4601,1.4643,1.4596,1.4598,1.4599,1.46,1.4728,1.473,0,0,0,0,0,0,1.4589,1.459,1.4629,1.4629,1.459,1.4595,1.4595,1.4607,1.4604,1.4601,1.459,1.4587,1.4597,1.4598,1.4601,1.4663,1.4598,1.46,1.4601,1.4726,1.4729,1.4731,0,0,0,0,0,0,1.4588,1.4593,1.4628,1.4609,1.4612,1.4598,1.4612,1.4608,1.4614,1.4603,1.46,1.46,1.4595,1.4598,1.4632,1.4662,1.4601,1.4603,1.4723,1.4727,1.473,1.4787,0,0,0,0,0,0,1.4587,1.4593,1.4613,1.4609,1.4613,1.466,1.4614,1.461,1.4618,1.4613,1.4611,1.4609,1.4594,1.463,1.4635,1.4664,1.4604,1.4721,1.4725,1.4729,1.4782,1.4792,1.48,0,0,0,0,0,1.4585,1.4629,1.4614,1.4619,1.4638,1.4662,1.4664,1.4646,1.4621,1.4641,1.4634,1.4609,1.4658,1.4634,1.4639,1.4669,1.4719,1.4724,1.4728,1.4778,1.479,1.48,0,0,0,0,0,0,1.4636,1.4628,1.4612,1.4656,1.466,1.4654,1.4679,1.4659,1.467,1.4665,1.4641,1.4641,1.468,1.4678,1.4651,1.472,1.4684,1.469,1.472,1.4731,1.474,1.4739,1.4606,0,0,0,0,0,1.4653,1.4673,1.4664,1.4704,1.4707,1.4693,1.4702,1.4688,1.4691,1.4693,1.4688,1.4692,1.4708,1.472,1.4734,1.4782,1.4781,1.4805,1.4814,1.4821,1.4827,1.4852,1.4863,1.4747,1.4747,1.4747,0,0,1.4687,1.4685,1.4699,1.4714,1.4716,1.4737,1.4694,1.4719,1.4734,1.4696,1.4729,1.4726,1.4728,1.477,1.4788,1.477,1.4859,1.4828,1.4833,1.4835,1.4858,1.4869,1.4879,1.475,1.475,1.4749,0,0,1.4759,1.476,1.4793,1.4796,1.4799,1.4789,1.4797,1.4794,1.4791,1.4823,1.4795,1.4813,1.4842,1.4845,1.485,1.4925,1.4902,1.493,1.4976,1.5,1.5009,1.5017,1.5044,1.5054,1.4936,1.4936,1.4936,0,1.4801,1.4832,1.4813,1.4839,1.4846,1.4814,1.4847,1.485,1.4858,1.4864,1.4843,1.4878,1.4878,1.4919,1.4938,1.4943,1.4951,1.493,1.501,1.5018,1.5025,1.505,1.506,1.4939,1.4939,1.4938,1.4938,0,1.4884,1.4906,1.4932,1.4941,1.4951,1.4981,1.4965,1.4978,1.4963,1.4955,1.4989,1.4987,1.5001,1.5009,1.4995,1.5049,1.5038,1.5014,1.4977,1.504,1.5063,1.5072,1.4944,1.4943,1.4942,1.4941,0,0,1.4988,1.4986,1.4996,1.5,1.5001,1.5017,1.5046,1.5059,1.5071,1.5077,1.51,1.5125,1.5103,1.5109,1.5095,1.5116,1.5176,1.509,1.5089,1.5106,1.5236,1.5254,1.5265,1.5161,1.5163,1.5164,1.5235,0,1.506,1.5108,1.5091,1.514,1.516,1.5129,1.5154,1.5157,1.5151,1.5167,1.5159,1.5178,1.5147,1.5151,1.5171,1.5164,1.5201,1.5159,1.5182,1.5183,1.5182,1.5277,1.5296,1.5364,1.5244,1.5246,1.5247,0,1.5149,1.5159,1.5211,1.5209,1.5216,1.5239,1.525,1.5266,1.5269,1.5263,1.527,1.5251,1.5278,1.5241,1.5278,1.5249,1.5258,1.5256,1.5258,1.5259,1.5219,1.5281,1.5385,1.5395,1.5261,1.526,1.5259,0,1.522,1.5247,1.5281,1.5285,1.5284,1.53,1.53,1.5302,1.5311,1.5321,1.5326,1.5339,1.5346,1.5356,1.5341,1.5315,1.538,1.5342,1.5375,1.5376,1.539,1.539,1.5497,1.5396,1.5396,1.5396,1.5395,0,1.5301,1.5334,1.5313,1.5334,1.537,1.535,1.5386,1.5382,1.5384,1.5403,1.5377,1.5396,1.5375,1.5392,1.538,1.5412,1.5415,1.5411,1.5408,1.5413,1.5414,1.5419,1.5413,1.5398,1.5398,1.5397,1.5397,0,1.5387,1.5374,1.541,1.5406,1.5405,1.5432,1.5428,1.5447,1.5439,1.5465,1.5469,1.5457,1.5475,1.5461,1.5479,1.5471,1.5514,1.5504,1.5513,1.551,1.5545,1.5542,1.5659,1.5673,1.5563,1.5564,1.5565,0,1.5439,1.5464,1.5462,1.5474,1.5476,1.5495,1.5504,1.5486,1.5497,1.5502,1.5521,1.5537,1.5549,1.558,1.5573,1.5586,1.5576,1.5616,1.5578,1.5583,1.5577,1.5576,1.5578,1.5624,1.5625,1.5626,1.5627,0,1.5534,1.5526,1.5541,1.5555,1.5567,1.5576,1.5583,1.5594,1.5575,1.5589,1.5608,1.5617,1.5636,1.5653,1.5664,1.5663,1.5642,1.5639,1.5648,1.5654,1.5659,1.5657,1.5534,1.5637,1.5636,1.5635,1.5634,1.5634,1.5604,1.5625,1.5627,1.5645,1.5648,1.5656,1.5674,1.5668,1.5684,1.5698,1.5686,1.5708,1.5711,1.5724,1.5726,1.5743,1.5727,1.5739,1.5742,1.5746,1.5751,1.5656,1.5745,1.5745,1.5745,1.5744,1.5744,0,1.5697,1.5697,1.5714,1.5725,1.5739,1.5718,1.5725,1.5738,1.5759,1.5763,1.5776,1.5797,1.5814,1.5807,1.5821,1.5837,1.5827,1.5841,1.584,1.584,1.5764,1.5756,1.5848,1.5848,1.5848,1.5848,1.5848,1.5848,1.5747,1.5781,1.5774,1.5809,1.5809,1.5831,1.5837,1.5844,1.5847,1.5873,1.5886,1.5882,1.5882,1.5896,1.591,1.5908,1.5914,1.5931,1.5926,1.5855,1.5845,1.5835,1.5827,1.5933,1.5933,1.6,1.6,1.6001]}]]